Regional Weather Roundup
Issued by NWS

Home | Current Version | Previous Version | Text Only | Print | Product List | Glossary Off
Versions: 1 2 3 4 5 6 7 8 9 10 11 12 13 14 15 16 17 18 19 20 21 22 23 24 25 26 27 28 29

000
ASUS45 KBOI 291210
RWRID
WEATHER ROUNDUP FOR IDAHO
NATIONAL WEATHER SERVICE BOISE ID
600 AM MDT WED OCT 29 2014

NOTE: "FAIR" INDICATES FEW OR NO CLOUDS BELOW 12000 FEET
WITH NO SIGNIFICANT WEATHER AND/OR OBSTRUCTIONS TO VISIBILITY

IDZ012-014-291300-
SOUTHWEST IDAHO


CITY           SKY/WX    TMP DP  RH WIND       PRES   REMARKS
BOISE          MOCLDY    49  35  58 SE9       30.13S
CALDWELL       CLOUDY    45  32  61 MISG      30.16S
MOUNTAIN HOME  CLEAR     41  28  58 E10       30.16S
$$

IDZ016-017-291300-
SOUTHCENTRAL IDAHO


CITY           SKY/WX    TMP DP  RH WIND       PRES   REMARKS
BURLEY         CLOUDY    41  27  57 N5        30.19R
JEROME         CLOUDY    37  22  54 NE15      30.20R WCI  28
TWIN FALLS     CLOUDY    51  25  36 S10       30.20R
$$

IDZ019>023-291300-
SOUTHEAST IDAHO


CITY           SKY/WX    TMP DP  RH WIND       PRES   REMARKS
IDAHO FALLS    CLOUDY    31  24  75 N5        30.23R WCI  26
POCATELLO      CLOUDY    34  24  67 NE7       30.22R WCI  28
REXBURG        CLOUDY    28  22  78 NE5       30.23S WCI  23
$$

IDZ006-010-011-018-031-032-291300-
CENTRAL IDAHO MOUNTAINS


CITY           SKY/WX    TMP DP  RH WIND       PRES   REMARKS
MCCALL         MOCLDY    37  35  92 E3        30.15R
HAILEY         MOCLDY    36  27  69 NW9       30.23S WCI  29
STANLEY          N/A     39  33  79 E3        30.19F
SALMON         PTCLDY    34  28  80 S6        30.11F WCI  29
CHALLIS        CLOUDY    34  27  75 N6        30.16S WCI  29
$$

IDZ002-004-006-007-026-291300-
NORTHERN IDAHO


CITY           SKY/WX    TMP DP  RH WIND       PRES   REMARKS
LEWISTON       CLOUDY    48  46  93 CALM      30.09R
LOWELL           N/A     47  45  93 CALM      30.15S
COEUR D`ALENE  CLOUDY    45  43  93 CALM      30.04R
MULLAN PASS    LGT RAIN  36  36 100 SW9       30.05R VSB 1/4 WCI  29
$$



USA.gov is the U.S. government's official web portal to all federal, state and local government web resources and services.